Погода Грозный

Погода Грозный : погода сейчас, прогноз погоды и архив. Всё, что Вы хотите узнать о погоде Грозный!

Поиск расширенной информации на нашем сайте:

Другие новости

Новости СМИ2

Главная страница сайта

Новости сайта

03.07.2017

Напоминаем, что на нашем специализированном сайте Метеоцентр.Азия вы можете получить высокодетализированные автоматические прогнозы погоды по пунктам России, СНГ и мира в авиационном формате (включающие направление и скорость ветра, видимость, явления погоды, количество и форму облачности, нижнюю и верхнюю границу облачности).

Рекомендуем: Наружные отопительные котлы - газовые котлы будерус.

Погода Грозный - сегодня

Время (UTC), дата Ветер
(°,м/с) 
Видим.   Явления Облачность Т
(°С)
Тd
(°С)
f(%) Тe
(°С)
Pmin
(гПа)
dP
(гПа)
Po
(мм)
O2
(г/м3)
Тmin Tmax R s Состояние
почвы
21 18.05.18 100 (В) 10 км    ясно 
+15 +11.5 80 +20  1015.2  0.2  738  280           
00 19.05.18 тихо ()   10 км    ясно 
+14.8 +12.4 86 +20  1015.2  -0.1  738  280           
03 19.05.18 200 (Ю) 20000 м    8/0 средняя 
[Ac lent]
+16.6 +11 69 +21  1015.5  0.8  739  279  +14.6        сухая 
06 19.05.18 280 (З) 20000 м    5/0 средняя, верхняя 
[Ac lent|Ci fib]
+23.5 +13 52 +29  1015.2  0.1  739  272           
09 19.05.18 140 (ЮВ) 20000 м    5/0 средняя, верхняя 
[Ac lent|Ci fib]
+28.1 +12.8 39 +34  1013.6  -1  738  267           
12 19.05.18 100 (В) 20000 м    6/0 средняя 
[Ac lent]
+28.8 +5.5 23 +29  1012.5  -1  738  268           
15 19.05.18 120 (ЮВ) 20000 м    10/10 1000 м 
[Sc]
+27 +15.6 50 +37  1013.5  0.8  738  267    +29       
18 19.05.18 150 (ЮВ) 10 км    10/10 600 м 
[Sc]
+19.5 +13.4 68 +27  1014.2  -0.4  738  275           
21 19.05.18 120 (ЮВ) 10 км    10/10 600 м 
[Sc]
+17.8 +13.4 75 +25  1014.2  738  276           
00 20.05.18 140 (ЮВ) 10 км    9/9 600 м 
[Sc]
+17 +13.5 80 +25  1013.6  -0.5  738  277           
03 20.05.18 230 (ЮЗ) 20000 м    9/9 1000 м 
[Sc]
+18.2 +13.6 75 +27  1013.5  738  276  +16.8        сухая 
06 20.05.18 260 (З) 20000 м    5/0 средняя, верхняя 
[Ac lent|Ci fib]
+23.2 +14.4 58 +31  1013.2  738  271           
09 20.05.18 270 (З) 20000 м    9/0 средняя 
[Ac As]
+27.8 +15.2 46 +37  1012  -0.5  737  266           
12 20.05.18 220 (ЮЗ) 20000 м    10/10 1000 м 
[Sc]
+27 +15.4 49 +37  1011.6  -0.5  737  267           
15 20.05.18 210 (ЮЗ) 20000 м    10/10 1000 м 
[Sc]
+25.6 +17.3 60 +39  1011.3  -0.3  737  268    +28       
18 20.05.18 110 (В) 10 км    8/0 средняя 
[Ac lent]
+19 +14.9 77 +30  1012.9  0.6  737  275           
21 20.05.18 110 (В) 10 км    ясно 
+16.5 +14.8 90 +27  1012.7  -0.4  737  277           
00 21.05.18 170 (Ю) 10 км    ясно 
+15.3 +13.5 89 +24  1012.1  -0.5  736  278           
03 21.05.18 230 (ЮЗ) 20000 м    9/0 средняя 
[Ac lent]
+16.7 +14.4 86 +26  1013  1.1  737  277  +15        сухая 
06 21.05.18 250 (З) 20000 м    8/0 средняя 
[Ac lent]
+22.5 +15.5 65 +33  1013.5  0.7  738  271           
09 21.05.18 220 (ЮЗ) 20000 м    3/0 средняя 
[Ac lent]
+29.3 +15.3 43 +39  1011.8  -0.8  737  265           
12 21.05.18 150 (ЮВ) 10 км  гроза без осадков  10/10 600 м кучево-дожд. 
[Cb cap]
+20.8 +13.9 65 +28  1014.7  1.7  738  274           
15 21.05.18 260 (З) 20000 м  {гроза, ливн. осадки}  10/10 1000 м 
[Sc]
+19.6 +17.1 85 +33  1015.6  739  274    +29.5  0.5     
18 21.05.18 260 (З) 10 км  {гроза}  10/10 600 м 
[Frnb]
+19 +16.5 85 +32  1018.3  2.5  741  276           
21 21.05.18 250 (З) 10 км  в посл. час ливневой дождь  9/9 600 м 
[Sc]
+18.5 +16.8 90 +31  1018.5  0.1  741  276           
Время (UTC), дата Ветер
(°,м/с) 
Видим.   Явления Облачность Т
(°С)
Тd
(°С)
f(%) Тe
(°С)
Pmin
(гПа)
dP
(гПа)
Po
(мм)
O2
(г/м3)
Тmin Tmax R s Состояние
почвы

Для получения пояснительной информации подведите курсор к названию столбца.

ПОГОДА Грозный - архив

Всё, что Вы хотите узнать о погоде Грозный - удобно и подробно!

Выберите нужную дату (начиная с 1 января 2015* года) и нажмите кнопку "Найти".
Будут отображены архивные сводки погоды по пункту Грозный, начиная с указанной даты.


Отображать данные в формате CSV (для использования в таблицах Excel)


Внимание! Наш архив погоды предназначен исключительно для личного некоммерческого использования в познавательных целях. Если Вам необходимы официальные справки о состоянии погоды (для производственных, юридических, коммерческих и т.п. целей), обращайтесь в органы Росгидромета.

*Примечание: данная дата относится к архиву по метеостанциям СССР (Россия, СНГ, Балтия).
Архив по метеостанциям Зарубежной Европы и Азии (кроме Китая) хранится 10 дней, по другим регионам земного шара (Китай, Африка, Америка, Австралия, Океания) - 1 день.

Грозный - район местоположения метеостанции


Название, широта, долгота, высота метеостанции:
Грозный 43.3°ш. 45.7°д. 163 м над ур. моря [Российская Федерация]

Дополнительная информация

В oтличие oт бoльшинства пoгoдных сайтoв мы публикуем пoдрoбную метеoинфoрмацию в детальнoм прoфессиoнальнoм фoрмате.

Характеристики температуры и влажнoсти вoздуха измеряются на высoте 2 м в тени вдали oт зданий и деревьев.
Скoрoсть ветра измеряется на высoте 10 м (на урoвне рoста челoвека скoрoсть ветра ниже в 1.5-2 раза). Если метеoстанция нахoдится в гoрoде или в лесу, тo скoрoсть ветра занижена на 2-4 м/с пo сравнению с oткрытым местoм. Скoрoсть ветра над акватoриями крупных рек и oзёр, а также на вершинах хoлмoв на 2-5 м/с выше, чем в oбычных услoвиях.
Атмoсфернoе давление в разных тoчках местнoсти мoжет значительнo oтличаться oт давления на метеoстанции, в зависимoсти oт услoвий рельефа (при пoдъёме на 10 м давление пoнижается примернo на 1 мм рт.ст.).